This is the latest recevied weather packets stored in our database for station/object EB2EMZ-14. If no packets are shown the sender has not sent any weather packets the latest 10 day(s).
| Time | Temp. | Humidity | Pressure | Rain* | Wind** | Luminosity | Snow |
|---|---|---|---|---|---|---|---|
| 1777455610 | 12.78° C | 89% | 1008.1 hPa | 4.06 mm | - | 0 W/m² | - |
| 1777455310 | 12.78° C | 89% | 1008.2 hPa | 3.56 mm | - | 0 W/m² | - |
| 1777455010 | 12.78° C | 89% | 1008.2 hPa | 4.06 mm | - | 0 W/m² | - |
| 1777454710 | 12.78° C | 89% | 1008.2 hPa | 4.57 mm | - | 0 W/m² | - |
| 1777454411 | 12.78° C | 89% | 1008.3 hPa | 4.06 mm | - | 0 W/m² | - |
| 1777454110 | 12.78° C | 89% | 1008.1 hPa | 4.06 mm | - | 0 W/m² | - |
| 1777453810 | 12.78° C | 89% | 1008.1 hPa | 4.06 mm | - | 0 W/m² | - |
| 1777453511 | 12.78° C | 89% | 1008 hPa | 4.06 mm | - | 0 W/m² | - |
| 1777453210 | 12.22° C | 90% | 1007.8 hPa | 3.56 mm | - | 0 W/m² | - |
| 1777452910 | 12.22° C | 90% | 1007.8 hPa | 3.56 mm | - | 0 W/m² | - |
| 1777452611 | 12.22° C | 89% | 1007.9 hPa | 3.05 mm | - | 0 W/m² | - |
| 1777452310 | 12.22° C | 89% | 1008 hPa | 2.03 mm | - | 0 W/m² | - |
| 1777452010 | 12.22° C | 89% | 1008 hPa | 1.52 mm | - | 0 W/m² | - |
| 1777451710 | 12.22° C | 89% | 1007.9 hPa | 1.52 mm | - | 0 W/m² | - |
| 1777451410 | 12.22° C | 89% | 1007.9 hPa | 1.02 mm | - | 0 W/m² | - |
| 1777451110 | 12.22° C | 89% | 1007.8 hPa | 0.51 mm | - | 0 W/m² | - |
| 1777450812 | 12.22° C | 89% | 1007.9 hPa | 0.51 mm | - | 0 W/m² | - |
| 1777450510 | 12.22° C | 89% | 1008 hPa | 1.02 mm | - | 0 W/m² | - |
| 1777450210 | 12.22° C | 90% | 1008 hPa | 1.02 mm | - | 0 W/m² | - |
| 1777449910 | 12.22° C | 90% | 1008 hPa | 2.03 mm | - | 0 W/m² | - |
| 1777449610 | 12.22° C | 90% | 1007.9 hPa | 2.03 mm | - | 0 W/m² | - |
| 1777449310 | 12.22° C | 90% | 1007.9 hPa | 2.03 mm | - | 0 W/m² | - |
| 1777449013 | 12.22° C | 90% | 1007.8 hPa | 1.52 mm | - | 0 W/m² | - |
| 1777448711 | 12.22° C | 90% | 1008 hPa | 1.52 mm | - | 0 W/m² | - |
| 1777448410 | 12.22° C | 90% | 1008 hPa | 1.52 mm | - | 0 W/m² | - |
* Rain latest hour (hover to see other rain measurements)
** Current wind speed in m/s (hover to see current wind gust speed)